Regional Weather Roundup
Issued by NWS Green Bay, WI

Home | Current Version | Previous Version | Text Only | Print | Product List | Glossary On
Versions: 1 2 3 4 5 6 7 8 9 10 11 12 13 14 15 16 17 18 19 20 21 22 23 24 25 26 27 28 29 30 31 32 33 34 35 36 37 38 39 40 41 42 43 44 45 46 47 48 49 50
000
ASUS43 KGRB 292100
RWRGRB

NORTH-CENTRAL AND NORTHEAST WISCONSIN REGIONAL WEATHER ROUNDUP
NATIONAL WEATHER SERVICE GREEN BAY WI
400 PM CDT WED JUL 29 2015

WIZ005-009-010>012-018-019-292200-
NORTH CENTRAL WISCONSIN

CITY           SKY/WX    TMP DP  RH WIND       PRES   REMARKS
IRONWOOD       CLOUDY    70  57  64 SW14      29.79S
MANITOWISH WTR NOT AVBL
ARBOR VITAE    NOT AVBL
EAGLE RIVER    NOT AVBL
LAND O LAKES   NOT AVBL
RHINELANDER    CLOUDY    76  53  44 W21G28    29.88R
PHILLIPS       NOT AVBL
ANTIGO         NOT AVBL
TOMAHAWK       NOT AVBL
MERRILL        NOT AVBL
$$

WIZ013-073-292200-
NORTHEAST WISCONSIN

CITY           SKY/WX    TMP DP  RH WIND       PRES   REMARKS
IRON MOUNTAIN  PTSUNNY   82  53  36 W18G33    29.79S
MARINETTE      SUNNY     84  52  32 W8G25     29.78F
$$

WIZ017-030-035>037-045-292200-
CENTRAL WISCONSIN

CITY           SKY/WX    TMP DP  RH WIND       PRES   REMARKS
MEDFORD        NOT AVBL
WAUSAU         SUNNY     82  51  34 W24G39    29.87S
MOSINEE        SUNNY     81  52  36 W25G35    29.90S
MARSHFIELD     SUNNY     81  50  33 W21G36    29.91S
WISC RAPIDS    SUNNY     84  48  28 W21G33    29.92S
STEVENS POINT  NOT AVBL
WAUPACA        NOT AVBL
SHAWANO        NOT AVBL
CLINTONVILLE   NOT AVBL
$$

WIZ038-039-048-051-292200-
FOX VALLEY

CITY           SKY/WX    TMP DP  RH WIND       PRES   REMARKS
NWS GREEN BAY  SUNNY     85  51  31 W18G31    29.85F
APPLETON       MOSUNNY   82  46  28 W17G30    29.88F
OSHKOSH        SUNNY     84  51  31 W12G23    29.88F
FOND DU LAC    SUNNY     84  50  30 W16G29    29.90F
$$

WIZ022-050-052-292200-
EAST CENTRAL WISCONSIN

CITY           SKY/WX    TMP DP  RH WIND       PRES   REMARKS
STURGEON BAY   SUNNY     82  52  34 W17G28    29.84F
MANITOWOC      NOT AVBL
SHEBOYGAN      SUNNY     85  52  32 W18G26    29.89F
$$

LMZ563-521-522-541>543-292200-
LAKESHORE

STATION/POSITION TIME  TEMP    WIND        PRES    VSBY  WAVE
                       AIR SEA DIR/SP/G                  HT/PER
                 (UTC) (F)     (DEG/KT/KT) (MB)    (MI)  (FT/S)
SHEBOYGAN LKSHOR 2000   83     260/ 19/ 24 1012.1F
KEWAUNEE LKSHORE 2018   83                   N/A
ALGOMA MARINA    2012          260/ 15/ 24   N/A
NORTHPORT PIER   2000   83     260/  9/ 15 1008.5F
N MID LAKE BUOY  1950   72 70  210/ 17/ 19 1008.2F         3/ 4
S GREEN BAY BUOY 2030   74 69  240/ 16/ 19 1011.2F
SISTER BAY LKSHO 2044   83     250/ 17/ 20   N/A
CHAMBERS ISLAND  2000   80     210/  9/ 16 1008.8F
MENOMINEE LKSHOR 2018   82                   N/A
$$


USA.gov is the U.S. government's official web portal to all federal, state and local government web resources and services.